Flag for Italy Weather past 2 weeks in Catania, Italy

Now
63 °F

Passing clouds.


Feels Like: 63 °F
Forecast: 56 / 72 °F
Wind: 3 mph from East

Location: Catania / Fontanarossa

Current Time: May 26, 2015 at 12:40:49 AM

Latest Report: May 25, 2015 at 11:50 PM


Visibility: N/A

Pressure: 29.89 "Hg

Humidity: 83%

Dew point: 57 °F

Location of CataniaLocation

Historic Weather in Catania — Graph

°F

Catania temperature yesterday

Maximum temperature yesterday: 72 °F (at 10:20 AM)
Minimum temperature yesterday: 54 °F (at 3:50 AM)
Average temperature yesterday: 64 °F

Past Weeks' High & Low Weather Summary

 TemperatureHumidityPressure
High91 °F (May 15, 2:50 PM)94% (May 19, 6:20 AM)30.24 "Hg (May 19, 6:20 AM)
Low48 °F (May 14, 5:20 AM)11% (May 15, 2:50 PM)29.71 "Hg (May 17, 2:50 PM)
Average66 °F58%29.95 "Hg
* Reported May 10 11:20 PM — May 25 11:20 PM, Catania, Weather by CustomWeather, © 2015

Note: Actual official high and low records may vary slightly from our data, if they occured in-between our weather recording intervals... More about our weather records

Advertising

Catania weather history for previous 24 hours

 ConditionsComfort  
Time TempWeatherWind HumidityBarometerVisibility
11:20 PM
Mon, May 25
63 °FPassing clouds.2 mph83%29.89 "HgN/A
10:50 PM64 °FPassing clouds.3 mph73%29.89 "HgN/A
10:20 PM64 °FPassing clouds.3 mph73%29.89 "HgN/A
9:50 PM64 °FPassing clouds.5 mph73%29.92 "HgN/A
9:20 PM64 °FPassing clouds.6 mph73%29.89 "HgN/A
8:50 PM64 °FPartly sunny.6 mph73%29.89 "HgN/A
8:20 PM64 °FPartly sunny.6 mph73%29.89 "HgN/A
7:50 PM66 °FPartly sunny.8 mph68%29.89 "HgN/A
7:20 PM66 °FScattered clouds.9 mph73%29.89 "HgN/A
6:50 PM66 °FSunny.12 mph68%29.89 "Hg10 mi
6:20 PM68 °FSunny.13 mph64%29.89 "Hg10 mi
5:50 PM68 °FSunny.13 mph64%29.89 "Hg10 mi
5:20 PM70 °FSunny.13 mph57%29.89 "Hg10 mi
4:50 PM70 °FSunny.14 mph50%29.89 "Hg10 mi
4:20 PM72 °FSunny.13 mph41%29.92 "Hg10 mi
3:50 PM72 °FSunny.15 mph44%29.92 "Hg10 mi
3:20 PM72 °FPassing clouds.15 mph47%29.92 "HgN/A
2:50 PM70 °FPassing clouds.15 mph53%29.92 "HgN/A
2:20 PM70 °FPassing clouds.14 mph60%29.95 "HgN/A
1:50 PM70 °FPassing clouds.14 mph60%29.92 "HgN/A
1:20 PM68 °FPassing clouds.16 mph64%29.92 "HgN/A
12:50 PM70 °FPassing clouds.15 mph57%29.92 "HgN/A
12:20 PM72 °FPassing clouds.15 mph50%29.92 "HgN/A
11:50 AM72 °FPassing clouds.10 mph47%29.92 "HgN/A
11:20 AM72 °FPassing clouds.10 mph50%29.92 "HgN/A
10:50 AM72 °FPassing clouds.7 mph47%29.95 "HgN/A
10:20 AM72 °FSunny.3 mph47%29.95 "Hg10 mi
9:50 AM70 °FPassing clouds.5 mph50%29.95 "HgN/A
9:20 AM68 °FPassing clouds.5 mph53%29.95 "HgN/A
8:50 AM66 °FPassing clouds.5 mph60%29.95 "HgN/A
8:20 AM63 °FPassing clouds.6 mph68%29.95 "HgN/A
7:50 AM59 °FSunny.8 mph77%29.95 "Hg10 mi
7:20 AM57 °FSunny.8 mph82%29.95 "Hg10 mi
6:50 AM55 °FSunny.8 mph82%29.95 "Hg10 mi
6:20 AM54 °FPassing clouds.6 mph88%29.95 "HgN/A
5:50 AM55 °FPassing clouds.6 mph82%29.95 "HgN/A
5:20 AM54 °FPassing clouds.5 mph88%29.95 "HgN/A
4:50 AM54 °FPassing clouds.7 mph88%29.95 "HgN/A
4:20 AM54 °FPassing clouds.5 mph88%29.95 "HgN/A
3:50 AM54 °FPassing clouds.5 mph88%29.95 "HgN/A
3:20 AM57 °FPassing clouds.3 mph77%29.95 "HgN/A
2:50 AM57 °FPassing clouds.5 mph82%29.95 "HgN/A
2:20 AM57 °FPassing clouds.6 mph82%29.95 "HgN/A
1:50 AM57 °FPassing clouds.6 mph82%29.95 "HgN/A
1:20 AM57 °FPassing clouds.6 mph82%29.95 "HgN/A
12:50 AM57 °FPassing clouds.5 mph82%29.95 "HgN/A
12:20 AM59 °FPassing clouds.3 mph82%29.95 "HgN/A
Weather by CustomWeather, © 2015

See weather overviewHow to use our weather pages